Theta_e
323 321 323 325 326 326 325 323 322 323 326 327 329 329 329 328 328 325 326 325 324 323 324 323 323 324 322 322 323 321 319 315 305 303 304 304 303 303 302 304 304 306 312
322 323 322 324 324 324 324 325 326 325 326 327 328 327 327 326 325 324 323 323 322 321 321 322 322 322 321 321 320 317 314 312 309 301 301 301 299 299 299 298 300 303 304
320 321 323 322 324 324 323 324 326 326 326 325 327 326 324 323 323 324 324 322 321 320 321 322 320 320 320 318 317 312 310 309 307 302 298 300 300 300 297 298 298 298 301
318 321 321 321 323 323 323 323 325 325 323 323 324 324 325 323 322 322 323 322 321 321 319 317 317 318 316 313 310 308 306 303 302 299 298 298 299 300 302 300 298 301 300
314 319 319 320 320 320 320 321 322 320 321 322 322 323 324 323 322 321 319 317 316 314 314 314 314 315 315 311 307 305 304 302 300 299 298 299 300 300 299 302 300 298 296
311 317 317 319 319 317 316 317 317 317 318 319 319 322 320 319 318 317 315 311 309 307 306 307 309 312 312 312 310 308 303 299 298 299 298 295 295 296 297 296 296 295 293
310 314 313 315 314 314 315 315 316 316 318 317 317 318 317 316 316 315 312 308 306 304 304 302 301 302 303 301 303 303 302 302 301 297 294 293 292 294 295 294 293 292 290
310 313 313 313 313 314 314 314 315 316 316 316 316 317 315 315 315 312 309 305 304 303 300 299 298 299 300 300 299 297 297 297 297 296 295 294 294 294 294 294 294 293 294
309 313 313 315 314 314 314 313 313 313 313 313 314 313 312 311 311 308 303 301 301 300 303 304 303 301 303 302 297 294 293 294 298 298 298 297 297 296 296 293 291 290 289
310 313 314 314 313 312 312 310 310 309 308 308 308 309 309 306 307 307 304 303 301 301 301 301 303 301 301 300 295 293 290 291 292 292 292 293 293 292 293 290 289 287 287
311 314 313 313 312 311 309 308 306 305 305 304 303 304 305 306 306 309 309 304 302 300 299 297 298 299 298 298 297 294 292 293 293 291 291 290 289 289 289 288 288 287 285
310 312 311 311 309 308 306 305 304 303 302 301 300 300 302 303 307 309 308 306 305 300 297 297 297 298 298 297 296 296 296 294 292 290 289 287 287 287 288 288 288 288 288
307 311 310 309 307 306 304 303 302 302 301 300 299 299 299 301 303 306 307 307 304 299 298 298 298 298 297 296 296 295 294 292 290 288 287 287 287 288 288 289 289 290 289
308 308 307 306 304 304 304 304 302 302 302 301 300 299 300 300 301 302 303 302 301 299 298 297 296 295 295 294 293 292 291 291 289 288 287 288 288 288 287 288 287 287 285
308 307 305 305 303 303 304 303 303 304 304 302 302 301 299 299 301 303 302 299 298 298 295 294 292 292 291 291 290 291 291 290 289 288 287 287 286 287 286 288 287 286 284
306 305 304 303 303 303 301 302 305 305 305 305 305 303 303 304 304 303 302 300 298 297 294 292 291 291 290 289 289 289 289 289 288 288 287 286 285 285 286 287 286 285 284
306 305 304 303 302 300 300 299 297 301 303 304 304 304 303 303 302 301 299 297 297 297 292 291 291 290 290 289 289 289 287 288 289 288 287 286 286 286 285 285 285 285 284
306 305 304 303 301 300 299 298 298 297 297 299 303 302 302 300 299 299 297 296 293 294 293 292 291 290 290 289 289 288 288 288 288 287 287 287 286 285 285 284 284 284 284
305 304 304 303 302 301 300 301 301 300 299 298 298 299 299 299 298 297 297 293 292 292 292 292 291 291 290 290 290 290 289 288 288 288 287 287 286 286 285 285 285 285 285
304 303 303 302 302 302 302 301 300 299 297 297 296 296 296 296 293 293 294 293 293 292 292 292 292 291 291 291 290 289 288 288 288 288 287 286 286 286 285 285 284 284 284
303 303 303 302 302 302 303 301 300 298 298 297 296 297 298 296 294 293 293 293 293 293 293 293 292 292 292 291 291 290 289 288 288 288 287 286 286 285 285 285 284 285 284
303 302 302 301 302 301 302 301 300 298 298 297 298 298 299 296 295 294 294 293 294 294 294 294 293 293 293 292 291 290 289 288 288 288 287 286 286 286 285 285 284 284 283
302 302 301 301 301 301 300 300 299 298 298 299 297 297 297 296 295 295 294 294 294 294 294 295 294 293 293 293 292 292 290 289 289 289 287 286 286 285 285 284 284 283 283
302 301 301 300 300 300 300 299 299 297 298 298 297 297 297 296 296 295 295 295 294 294 295 294 294 293 292 292 292 292 291 290 290 289 289 287 286 286 285 284 284 284 283
301 301 300 300 300 301 300 299 298 298 298 298 297 298 298 297 296 296 296 295 294 294 294 294 294 293 292 292 292 291 289 289 289 289 288 288 286 286 285 284 284 284 283
301 300 300 300 300 301 301 299 298 298 298 298 298 299 298 297 297 297 296 295 294 293 293 293 293 293 293 292 291 289 288 288 288 289 289 287 286 286 285 284 284 283 283
Wind_Speed
14 10 6 2 3 6 6 8 10 13 12 4 6 9 9 7 8 7 5 6 6 6 5 5 6 7 4 3 3 3 4 3 5 3 3 5 6 7 8 9 10 9 9
9 5 5 4 5 6 7 9 12 13 11 8 6 9 9 7 7 7 8 6 7 6 6 5 7 5 5 3 3 4 4 3 3 6 2 4 6 5 5 7 6 6 7
12 5 3 3 5 7 6 5 7 9 10 10 11 11 10 7 5 7 9 8 7 7 5 5 6 4 4 4 4 5 4 5 5 5 3 2 3 2 4 3 3 4 4
9 7 3 4 5 5 5 5 7 8 9 9 10 9 11 9 8 7 8 7 7 7 7 6 7 6 6 6 6 6 6 7 7 7 5 3 2 0 1 2 1 3 3
10 6 3 3 5 6 5 6 8 7 7 7 8 5 11 10 8 10 9 8 9 9 8 9 9 11 14 11 6 6 7 7 6 5 3 3 3 4 4 3 3 5 6
7 9 3 4 7 10 8 8 8 8 7 8 9 11 10 6 16 15 13 10 11 12 12 13 12 17 19 22 21 18 11 7 7 4 5 6 7 4 4 5 5 4 2
8 4 5 6 6 7 8 8 7 10 10 9 9 9 9 11 21 22 20 11 11 11 12 13 11 11 16 15 23 24 22 23 18 10 9 8 8 8 6 6 6 6 6
7 6 7 8 8 8 8 8 8 7 7 7 8 10 10 10 23 24 22 13 11 13 12 10 10 10 10 12 14 16 16 15 13 10 11 10 9 7 6 5 4 3 5
5 7 9 11 9 8 10 9 8 8 8 8 8 11 13 12 24 25 19 12 13 12 9 11 12 12 17 19 13 14 14 13 17 21 20 20 20 20 16 6 6 5 3
3 7 7 10 10 9 10 10 9 9 9 9 10 11 18 13 22 26 19 11 14 11 12 13 18 13 16 16 11 10 11 9 9 9 8 11 13 14 18 11 8 7 6
3 6 8 9 10 10 12 11 11 11 11 12 12 10 12 13 14 19 19 12 11 11 10 9 9 17 17 17 15 10 11 9 11 7 7 7 8 8 8 9 9 7 7
5 7 9 11 9 9 13 11 12 13 13 12 13 11 9 10 14 14 16 17 16 11 11 10 12 20 20 20 14 17 14 10 6 7 7 7 7 6 6 7 7 6 6
6 8 10 12 12 11 13 12 11 12 11 10 10 10 10 9 10 21 19 21 22 13 11 18 23 22 21 16 16 14 11 6 6 7 7 6 6 6 6 5 4 3 5
7 10 11 12 12 11 9 9 10 10 10 11 11 11 10 10 10 10 11 14 24 17 22 13 13 15 15 12 10 9 7 7 7 6 6 5 5 5 5 4 4 4 4
11 12 11 10 11 10 8 8 9 7 7 12 11 10 12 11 9 14 14 12 11 15 14 9 7 7 7 7 6 6 6 6 6 5 5 5 5 4 4 4 4 5 6
12 11 10 10 10 10 10 10 15 14 14 16 14 11 9 19 23 21 22 23 23 20 8 8 7 7 7 7 6 6 6 8 5 5 5 5 5 5 4 4 4 5 5
13 14 11 12 11 11 11 12 13 14 19 19 23 22 21 23 24 25 27 22 16 11 7 7 7 7 7 6 6 6 6 5 5 5 5 5 5 4 5 5 6 5 5
15 21 12 11 11 11 11 12 12 12 12 11 15 19 23 24 26 25 22 14 7 8 6 7 7 7 6 6 6 6 5 4 5 5 5 5 4 4 4 5 6 5 5
14 11 11 11 10 12 11 11 12 12 12 12 12 16 20 25 24 22 14 7 7 7 7 7 6 6 6 6 6 5 5 5 4 4 4 4 4 4 5 4 4 7 6
12 21 14 11 12 11 11 12 12 13 13 11 12 11 12 14 10 7 7 7 7 7 7 7 7 6 6 6 5 5 4 4 4 3 4 4 4 4 4 4 4 4 4
10 12 19 11 11 11 11 12 12 12 12 10 11 12 16 8 8 7 7 7 7 7 7 7 6 6 6 6 5 4 4 4 4 3 3 3 4 3 4 3 3 4 3
10 10 10 11 10 10 11 12 12 12 12 11 11 12 13 7 8 8 8 7 7 7 6 7 6 6 6 5 4 4 4 4 4 3 3 3 3 3 3 3 4 4 5
10 10 11 10 10 14 11 11 11 11 11 11 11 10 7 8 8 8 8 8 7 7 7 7 7 6 5 5 5 4 4 4 4 3 3 3 3 3 3 4 4 4 4
9 11 12 11 11 10 11 11 11 12 12 12 11 8 9 8 9 10 9 8 8 7 7 6 6 8 7 6 5 4 5 5 3 4 4 4 3 3 4 4 4 5 4
7 8 11 11 11 10 12 11 11 11 11 11 10 9 9 9 9 9 9 8 8 7 8 6 5 9 10 10 7 7 9 8 6 4 3 4 4 4 4 3 3 3 5
6 7 8 10 10 10 11 11 11 11 11 10 10 9 9 10 9 9 9 9 8 7 8 6 7 9 11 9 9 12 11 10 6 6 4 3 3 3 3 4 5 3 5
Wind_Direction
343 331 356 11 119 148 118 104 121 133 142 257 156 138 143 153 156 146 147 119 137 113 102 111 107 104 104 67 81 94 68 81 106 97 51 24 35 38 35 41 39 40 53
317 310 31 33 157 136 133 123 140 139 137 158 163 156 152 146 143 144 112 135 126 117 130 145 119 103 104 98 70 75 79 52 101 112 80 55 56 31 44 51 37 40 47
304 293 161 149 117 129 125 126 127 139 145 145 177 154 137 129 138 115 129 124 130 131 134 108 91 103 101 70 69 84 77 69 78 112 109 71 52 64 61 51 54 63 70
294 273 240 164 142 119 131 143 155 137 127 147 160 147 149 133 118 114 117 121 91 91 83 79 66 68 94 91 84 85 88 85 83 88 81 81 84 316 177 138 154 80 69
329 283 221 153 110 112 135 139 125 110 124 139 103 114 132 128 123 112 104 101 104 95 85 81 78 91 94 95 95 89 93 92 91 93 92 160 109 60 32 19 76 117 66
323 291 163 179 151 141 133 140 125 111 130 124 106 113 110 105 115 115 113 104 99 95 87 76 72 82 87 90 89 85 84 82 74 80 73 74 61 42 51 33 15 1 88
306 237 141 161 143 126 129 125 141 135 145 120 108 105 105 117 123 116 110 105 103 99 96 91 90 89 89 93 89 84 73 65 60 65 73 60 56 28 32 52 52 57 60
305 201 151 151 136 137 132 129 118 118 111 112 130 121 117 124 124 118 110 105 102 100 100 108 114 118 111 100 89 78 66 58 60 67 63 56 41 33 59 51 69 143 117
301 198 167 159 137 143 134 121 108 108 103 100 106 115 119 121 125 120 110 109 104 103 106 97 95 98 101 100 96 95 90 83 78 81 80 73 60 49 36 32 14 25 12
311 183 180 146 135 138 124 111 102 98 97 99 96 110 118 120 127 122 118 118 110 102 97 86 89 97 102 102 102 104 99 97 91 82 74 63 58 56 48 41 22 26 19
279 157 150 133 129 128 114 110 109 106 101 99 94 95 109 123 133 131 120 115 114 113 106 98 91 95 93 93 90 87 94 103 96 86 78 67 63 53 51 44 41 37 26
286 166 136 129 125 125 116 116 115 112 109 108 107 104 106 110 108 104 108 110 114 112 105 100 100 99 96 93 90 97 100 94 85 78 68 58 52 52 53 56 56 59 58
268 175 136 132 128 127 123 124 121 120 120 119 115 114 113 106 96 96 98 101 105 107 105 109 106 101 97 92 96 94 85 79 80 76 72 64 55 50 46 51 60 23 103
216 134 130 129 125 125 128 129 129 133 131 128 125 121 118 114 114 112 104 99 104 106 112 115 104 99 101 103 81 64 63 64 70 74 74 70 64 49 47 18 27 31 37
162 138 131 128 124 124 119 128 128 122 129 134 130 127 131 131 131 124 124 118 122 112 116 118 118 107 101 95 91 85 76 68 67 65 67 63 52 57 51 27 17 31 45
143 132 130 127 125 117 104 97 79 99 96 93 106 119 110 112 114 114 112 112 121 135 123 120 119 114 109 105 97 92 79 72 65 64 63 60 57 37 38 34 33 40 35
137 132 129 130 127 122 115 115 109 77 78 85 96 108 112 121 114 115 118 129 141 133 115 116 109 106 105 103 97 88 83 73 66 63 62 56 46 45 34 36 28 29 29
133 134 130 134 128 126 123 120 117 116 109 103 101 114 113 120 124 125 130 133 124 107 109 112 111 109 107 105 101 103 100 87 70 64 62 56 51 45 38 45 31 18 19
132 133 134 128 128 128 125 128 123 122 120 117 119 115 124 126 126 134 147 116 119 119 117 112 110 109 108 104 94 90 85 79 80 73 66 58 52 47 44 34 21 31 28
129 132 130 128 130 131 132 128 125 121 124 130 132 131 131 131 135 144 124 123 122 121 118 114 112 111 106 107 106 101 120 98 84 74 69 63 57 50 48 32 23 17 4
128 131 133 127 134 136 135 132 129 130 131 132 139 143 149 141 140 129 126 127 127 126 123 119 115 114 114 112 114 111 103 96 86 80 71 62 51 50 42 31 28 6 25
129 131 131 132 131 131 130 130 130 131 132 136 133 147 163 134 132 129 126 127 126 124 119 121 119 118 117 119 124 118 112 105 98 89 78 64 60 50 50 37 25 20 34
128 128 127 127 126 128 129 129 132 133 136 135 137 145 152 136 134 128 128 127 128 125 124 124 123 122 122 123 115 112 115 113 108 104 97 86 60 49 51 48 34 26 27
121 127 131 130 131 133 130 133 133 134 138 135 143 146 139 134 133 132 127 128 127 124 122 125 129 133 128 119 118 117 107 110 108 104 100 92 92 57 57 50 46 27 32
98 132 132 129 133 136 133 134 137 142 141 142 145 146 137 133 134 131 131 131 130 128 127 129 133 140 134 128 130 118 113 115 108 99 89 88 82 67 63 56 41 35 32
113 124 132 133 135 137 135 140 144 145 146 143 146 145 141 137 138 135 136 134 133 130 130 130 141 139 139 138 134 128 126 120 112 75 105 103 89 62 60 54 42 36 40